Location: Casco Millpond
(44.5581°N, 87.6111°W)
Time: 20:10:23
(UTC+00:00)

Okean 1-7 - Pass Details

Date: 16 January 2026
Orbit: 566 x 588 km, 82.5° (Epoch: 10 February)

Event Time Altitude Azimuth Distance (km) Brightness Sun altitude
Rises 12:45:09 0° 343° (NNW) 2,781 6.0 -6.9°
Reaches altitude 10° 12:47:28 10° 335° (NNW) 1,882 5.1 -6.5°
Maximum altitude 12:51:15 36° 268° (W) 924 3.5 -5.9°
Drops below altitude 10° 12:55:03 10° 202° (SSW) 1,879 5.6 -5.3°
Sets 12:57:21 0° 194° (SSW) 2,776 6.6 -4.9°
